DW1188 Weather Reports


Display with metric or nautical units.
time (UTC)temp
F
wind
direction
speed
MPH
gust
MPH
rain 1hr
in
rain 24hr
in
rain mn
in
humidity
%
barometer
mb
20260904190624 53 242 0.0 0.0 0.00 0.13 0.04 85 1017.3
20260904185354 54 242 0.0 0.0 0.00 0.12 0.03 81 1017.2
20260904184219 54 242 0.0 0.0 0.00 0.12 0.03 81 1017.1
20260904182955 54 281 0.0 0.0 0.00 0.12 0.03 82 1017.0
20260904181747 54 254 0.0 0.0 0.00 0.11 0.02 81 1016.9
20260904180556 54 261 0.0 0.0 0.00 0.11 0.02 80 1016.8
20260904175355 54 195 0.0 0.0 0.00 0.11 0.02 80 1016.7
20260904174154 53 188 0.0 0.0 0.00 0.11 0.02 81 1016.6
20260904173005 53 188 0.0 0.0 0.00 0.11 0.02 83 1016.5
20260904171804 53 181 0.0 0.0 0.00 0.11 0.02 85 1016.5
20260904170632 52 167 0.0 0.0 0.00 0.11 0.02 87 1016.4
20260904165449 52 167 0.0 0.0 0.00 0.11 0.02 87 1016.3
20260904164305 52 167 0.0 0.0 0.00 0.11 0.02 90 1016.2
20260904163057 51 167 0.0 0.0 0.00 0.11 0.02 89 1016.1
20260904161828 51 221 0.0 0.0 0.00 0.11 0.02 90 1016.0
20260904160616 51 221 0.0 0.0 0.00 0.11 0.02 91 1015.9
20260904155350 51 221 0.0 0.0 0.00 0.11 0.02 92 1015.7
20260904154122 50 222 0.0 0.0 0.00 0.11 0.02 92 1015.7
20260904152921 50 150 0.0 0.0 0.00 0.11 0.02 92 1015.6
20260904151641 50 157 0.0 0.0 0.00 0.11 0.02 92 1015.6
20260904150430 50 142 0.0 0.0 0.00 0.11 0.02 92 1015.4
20260904145239 50 136 0.0 0.0 0.00 0.11 0.02 92 1015.2
20260904142801 50 138 0.0 0.0 0.00 0.11 0.02 92 1014.8
20260904141619 50 126 0.0 0.0 0.00 0.11 0.02 92 1014.7
20260904140412 50 129 0.0 0.0 0.00 0.11 0.02 92 1014.6
20260904135227 50 148 0.0 0.0 0.00 0.11 0.02 92 1014.4
20260904134048 50 150 0.0 0.0 0.00 0.11 0.02 92 1014.3
20260904132835 50 55 0.0 0.0 0.00 0.11 0.02 92 1014.3
20260904131633 50 28 0.0 0.0 0.00 0.11 0.02 92 1013.9
20260904130452 51 28 0.0 0.0 0.00 0.13 0.02 92 1013.8
20260904125312 51 28 0.0 0.0 0.00 0.12 0.01 92 1013.8
20260904122810 51 26 0.0 0.0 0.00 0.12 0.01 91 1013.3
20260904121614 51 26 0.0 0.0 0.00 0.14 0.01 91 1013.3
20260904113714 51 26 0.0 0.0 0.00 0.15 0.01 91 1012.8
20260904105825 51 26 0.0 0.0 0.00 0.17 0.01 91 1012.3
20260904104650 51 306 0.0 0.0 0.00 0.17 0.01 91 1012.2
20260904103414 51 290 0.0 0.0 0.00 0.17 0.01 91 1012.3
20260904102204 51 290 0.0 0.0 0.00 0.17 0.01 91 1012.5
20260904101018 51 290 0.0 0.0 0.00 0.17 0.01 90 1012.3
20260904095813 51 290 0.0 0.0 0.00 0.17 0.01 90 1012.2
20260904093224 51 300 0.0 0.0 0.00 0.17 0.01 90 1011.5
20260904090747 50 286 0.0 0.0 0.00 0.19 0.01 90 1011.4
20260904085541 51 286 0.0 0.0 0.00 0.19 0.01 90 1011.7
20260904084340 51 129 0.0 0.0 0.00 0.19 0.01 90 1011.4
20260904083155 51 129 0.0 0.0 0.00 0.19 0.01 90 1011.3
20260904080638 51 129 0.0 0.0 0.00 0.19 0.01 91 1011.3
20260904075507 51 140 0.0 0.0 0.00 0.19 0.01 91 1010.8
20260904074306 51 146 0.0 0.0 0.00 0.19 0.01 91 1011.4
20260904073037 51 117 0.0 0.0 0.00 0.19 0.01 91 1011.5
20260904071808 51 112 0.0 0.0 0.00 0.19 0.01 90 1011.4
20260904070547 52 89 0.0 0.0 0.00 0.18 0.01 89 1011.2
20260904065404 52 59 0.0 0.0 0.06 0.18 0.18 89 1011.6
20260904062845 52 298 0.0 0.0 0.08 0.14 0.15 88 1011.9
20260904061709 52 213 0.0 2.0 0.04 0.13 0.13 87 1011.8
20260904060453 52 145 0.0 0.0 0.05 0.12 0.12 85 1011.7
20260904055306 53 142 0.0 0.0 0.04 0.10 0.10 84 1011.6
20260904054103 53 115 0.0 0.0 0.00 0.09 0.10 84 1011.5
20260904051449 55 139 0.0 0.0 0.00 0.09 0.09 76 1011.3
20260904050248 55 89 0.0 0.0 0.00 0.08 0.08 71 1011.2
20260904045027 56 138 0.0 0.0 0.00 0.08 0.08 68 1011.3
20260904042537 57 111 0.0 0.0 0.00 0.08 0.08 62 1011.3
20260904041317 58 121 0.0 7.0 0.00 0.08 0.08 57 1011.2
20260904033511 60 43 0.0 0.0 0.00 0.08 0.08 56 1011.0
20260904032318 60 43 0.0 0.0 0.00 0.12 0.08 55 1010.9
20260904025745 60 35 0.0 0.0 0.00 0.16 0.08 54 1010.8
20260904024610 61 30 0.0 0.0 0.00 0.16 0.08 54 1010.7
20260904023433 61 30 0.0 0.0 0.00 0.16 0.08 53 1010.8
20260904022228 61 30 0.0 0.0 0.00 0.16 0.08 52 1010.9
20260904021011 61 30 0.0 0.0 0.00 0.16 0.08 52 1011.0
20260904015747 61 30 0.0 0.0 0.00 0.16 0.08 51 1010.9
20260904014514 62 9 0.0 0.0 0.00 0.16 0.08 50 1011.0
20260904013345 62 9 0.0 0.0 0.00 0.16 0.08 48 1011.1
20260904012211 62 9 0.0 0.0 0.00 0.16 0.08 47 1011.1
20260904010948 62 5 0.0 0.0 0.00 0.16 0.08 48 1011.2
20260904004430 62 5 0.0 0.0 0.00 0.16 0.08 45 1011.3
20260904003218 62 355 0.0 0.0 0.00 0.16 0.08 46 1011.5
20260904001955 62 84 0.0 0.0 0.00 0.16 0.08 47 1011.7
20260904000736 62 57 0.0 0.0 0.00 0.16 0.08 48 1011.8
20260903235519 62 115 0.0 0.0 0.00 0.16 0.08 47 1011.9
20260903234347 62 124 0.0 0.0 0.00 0.16 0.08 48 1012.1
20260903233107 63 176 0.0 0.0 0.00 0.16 0.08 49 1012.0
20260903230548 63 162 0.0 4.0 0.00 0.16 0.08 49 1012.2
20260903225403 62 112 0.0 1.0 0.00 0.16 0.08 51 1012.2
20260903224202 62 128 1.0 11.0 0.00 0.16 0.08 50 1012.4
20260903222938 63 188 0.0 2.0 0.00 0.16 0.08 49 1012.5
20260903215001 63 173 0.0 4.0 0.00 0.16 0.08 49 1012.5
20260903213822 62 194 0.0 5.0 0.00 0.16 0.08 50 1012.5
20260903212616 62 149 0.0 6.0 0.00 0.16 0.08 50 1012.6
20260903203419 61 194 0.0 11.0 0.00 0.16 0.08 53 1012.9
20260903202214 60 169 3.0 13.0 0.00 0.16 0.08 54 1013.0
20260903200952 60 196 5.0 14.0 0.00 0.16 0.08 54 1013.0
20260903195812 61 200 0.0 9.0 0.00 0.16 0.08 54 1013.0
20260903194629 60 175 2.0 10.0 0.00 0.16 0.08 56 1013.2
20260903193450 59 222 1.0 14.0 0.00 0.16 0.08 56 1013.1
20260903192222 59 229 1.0 14.0 0.00 0.16 0.08 57 1013.3